Regional Weather Roundup
Issued by NWS

Home | Current Version | Previous Version | Graphics & Text | Print | Product List | Glossary On
Versions: 1 2 3 4 5 6 7 8 9 10 11 12 13 14 15 16 17 18 19 20 21 22 23 24 25 26 27 28 29 30 31 32 33 34 35 36 37 38 39 40 41 42 43 44 45 46 47 48 49 50
000
ASUS44 KMEG 181110
RWRTN
TENNESSEE HOURLY STATE WEATHER ROUNDUP
NATIONAL WEATHER SERVICE MEMPHIS TN
500 AM CST THU DEC 18 2014

TNZ002-004-019-021-049-052-054-088>092-181200-
WEST TENNESSEE

CITY           SKY/WX    TMP DP  RH WIND       PRES   REMARKS
MEMPHIS INTL   CLOUDY    39  35  86 E7        30.21F FOG     WCI  34
NWS MEMPHIS      N/A     36 N/A N/A MISG        N/A
JACKSON        CLOUDY    36  34  92 CALM      30.24F
DYERSBURG      CLOUDY    36  25  64 CALM      30.25F
UNION CITY     CLOUDY    32  32 100 CALM      30.23F
PARIS          CLOUDY    30  28  93 E5        30.23S WCI  25
HUNTINGDON     CLOUDY    32  30  92 E6        30.24R WCI  26
LEXINGTON      CLOUDY    34  34 100 CALM      30.21S
SAVANNAH       CLOUDY    36  36 100 CALM      30.22F
$$

TNZ008-025-027-028-033-062-065-066-181200-
NORTH MIDDLE TENNESSEE

CITY           SKY/WX    TMP DP  RH WIND       PRES   REMARKS
NASHVILLE      LGT RAIN  33  31  92 E5        30.26S WCI  29
CLARKSVILLE    FRZ RAIN  32  29  88 E3        30.26R FOG
SMYRNA         MIX PCPN  32  31  96 VRB3      30.26F
COOKEVILLE     MOCLDY    30  28  93 CALM      30.21S
CROSSVILLE     MIX PCPN  32  27  81 NE5       30.18F WCI  27
$$

TNZ061-075-076-078-094-096-097-181200-
SOUTH MIDDLE TENNESSEE

CITY           SKY/WX    TMP DP  RH WIND       PRES   REMARKS
FAYETTEVILLE   CLOUDY    34  28  80 MISG      30.21S
TULLAHOMA      CLOUDY    32  30  93 NE5       30.21F WCI  27
WINCHESTER     CLOUDY    34  30  86 NE5       30.22F WCI  30
MCMINNVILLE    CLOUDY    32  32 100 CALM      30.23R
SHELBYVILLE    MOCLDY    34  34 100 NE5       30.23F WCI  30
$$

TNZ017-018-042-046-047-181200-
NORTHEAST TENNESSEE

CITY           SKY/WX    TMP DP  RH WIND       PRES   REMARKS
TRI CITIES     PTCLDY    25  24  96 CALM      30.19R FOG
ELIZABETHTON   MOSUNNY   23  23 100 CALM      30.18R
$$

TNZ012-013-036-069-073-074-181200-
CENTRAL EAST TENNESSEE

CITY           SKY/WX    TMP DP  RH WIND       PRES   REMARKS
KNOXVILLE      CLOUDY    34  28  79 N5        30.23R WCI  30
OAK RIDGE      CLOUDY    35  29  78 CALM      30.24R
GATLINBURG     CLOUDY    28  27  93 CALM      30.22R
MORRISTOWN     PTSUNNY   28  27  93 CALM      30.20R
$$

TNZ083-085-099-181200-
SOUTHEAST TENNESSEE

CITY           SKY/WX    TMP DP  RH WIND       PRES   REMARKS
CHATTANOOGA    CLOUDY    38  30  73 NE5       30.22S WCI  34
$$

SKY/WX REPORTED AS FAIR MEANS FEW OR NO CLOUDS BELOW
12 THOUSAND FEET.




USA.gov is the U.S. government's official web portal to all federal, state and local government web resources and services.